CCA7766 ZSAM-ZSQD

Flight info

Callsign CCA7766
Flight time 2h 2m
Altitude 33100
Route BUPDU W643 FOC W644 ANLUD B221 SUPAR V73 JTN W116 PK G455 HSH V2 ODULO B221 IDVEL
Aircraft A320/M-V/N

Departure

Time 2026-04-18 03:41
Airport Xiamen Gaoqi International Airport (ZSAM)

Arrival

Time 2026-04-18 05:43
Airport Qingdao Jiaodong International Airport (ZSQD)
Time Latitude Longitude Altitude Speed Heading
2026-04-18 03:37 24.53835 118.11958 56 ft 0 kts 53°
2026-04-18 03:40 24.53960 118.12136 58 ft 71 kts 52°
2026-04-18 03:40 24.54445 118.12808 52 ft 150 kts 54°
2026-04-18 03:40 24.55199 118.13843 312 ft 180 kts 51°
2026-04-18 03:40 24.55965 118.14887 638 ft 166 kts 53°
2026-04-18 03:41 24.56672 118.15885 1120 ft 167 kts 53°
2026-04-18 03:41 24.57405 118.16922 1636 ft 175 kts 53°
2026-04-18 03:41 24.58164 118.17994 2125 ft 185 kts 52°
2026-04-18 03:41 24.58994 118.19164 2571 ft 200 kts 52°
2026-04-18 03:42 24.59877 118.20409 3095 ft 215 kts 51°
2026-04-18 03:42 24.60820 118.21754 3585 ft 235 kts 56°
2026-04-18 03:42 24.61449 118.23489 3916 ft 255 kts 83°
2026-04-18 03:42 24.61460 118.25438 4002 ft 256 kts 92°
2026-04-18 03:43 24.61419 118.27402 4190 ft 257 kts 91°
2026-04-18 03:43 24.61390 118.29370 4433 ft 258 kts 91°
2026-04-18 03:43 24.61366 118.31354 4681 ft 260 kts 91°
2026-04-18 03:43 24.61346 118.33322 4922 ft 262 kts 90°
2026-04-18 03:44 24.61329 118.35330 5161 ft 262 kts 91°
2026-04-18 03:44 24.61305 118.37418 5415 ft 284 kts 91°
2026-04-18 03:44 24.61268 118.39604 5659 ft 286 kts 91°
2026-04-18 03:44 24.61226 118.41815 5908 ft 288 kts 91°
2026-04-18 03:45 24.61182 118.44021 6187 ft 289 kts 91°
2026-04-18 03:45 24.61135 118.46215 6660 ft 292 kts 91°
2026-04-18 03:45 24.61088 118.48461 7133 ft 296 kts 91°
2026-04-18 03:45 24.61044 118.50737 7618 ft 299 kts 91°
2026-04-18 03:46 24.61000 118.53043 8107 ft 303 kts 91°
2026-04-18 03:46 24.60953 118.55386 8604 ft 307 kts 91°
2026-04-18 03:46 24.60905 118.57754 9114 ft 312 kts 91°
2026-04-18 03:46 24.60857 118.60128 9613 ft 316 kts 91°
2026-04-18 03:47 24.60808 118.62561 10104 ft 320 kts 91°
2026-04-18 03:47 24.60762 118.65056 10578 ft 332 kts 89°
2026-04-18 03:47 24.61010 118.67604 11055 ft 342 kts 76°
2026-04-18 03:47 24.61773 118.70120 11544 ft 351 kts 63°
2026-04-18 03:48 24.63048 118.72456 12032 ft 358 kts 50°
2026-04-18 03:48 24.64755 118.74427 12529 ft 363 kts 37°
2026-04-18 03:48 24.66860 118.75994 13034 ft 369 kts 26°
2026-04-18 03:48 24.69123 118.77432 13549 ft 379 kts 27°
2026-04-18 03:49 24.71409 118.78895 14034 ft 386 kts 27°
2026-04-18 03:49 24.73751 118.80406 14488 ft 390 kts 27°
2026-04-18 03:49 24.76107 118.81931 14964 ft 394 kts 27°
2026-04-18 03:49 24.78479 118.83470 15440 ft 397 kts 27°
2026-04-18 03:50 24.80873 118.85020 15926 ft 401 kts 27°
2026-04-18 03:50 24.83294 118.86588 16413 ft 404 kts 27°
2026-04-18 03:50 24.85729 118.88161 16916 ft 408 kts 27°
2026-04-18 03:50 24.88158 118.89731 17415 ft 411 kts 27°
2026-04-18 03:51 24.90641 118.91338 17929 ft 415 kts 27°
2026-04-18 03:51 24.93154 118.92965 18434 ft 419 kts 27°
2026-04-18 03:51 24.95685 118.94605 18889 ft 422 kts 27°
2026-04-18 03:51 24.98200 118.96238 19349 ft 426 kts 27°
2026-04-18 03:52 25.00764 118.97906 19804 ft 429 kts 27°
2026-04-18 03:52 25.03354 118.99589 20289 ft 432 kts 27°
2026-04-18 03:52 25.05981 119.01230 20770 ft 434 kts 25°
2026-04-18 03:52 25.08661 119.02813 21262 ft 437 kts 24°
2026-04-18 03:53 25.11380 119.04364 21760 ft 441 kts 23°
2026-04-18 03:53 25.14102 119.05899 22265 ft 443 kts 23°
2026-04-18 03:53 25.16865 119.07464 22783 ft 446 kts 23°
2026-04-18 03:53 25.19632 119.09051 23308 ft 448 kts 24°
2026-04-18 03:54 25.22371 119.10638 23790 ft 451 kts 24°
2026-04-18 03:54 25.23777 119.11459 24007 ft 451 kts 24°
2026-04-18 03:54 25.26478 119.13035 24452 ft 453 kts 24°
2026-04-18 03:54 25.29269 119.14674 24891 ft 455 kts 23°
2026-04-18 03:55 25.32075 119.16328 25353 ft 456 kts 23°
2026-04-18 03:55 25.33932 119.17422 25664 ft 456 kts 23°
2026-04-18 03:55 25.36747 119.19077 26137 ft 457 kts 22°
2026-04-18 03:55 25.40484 119.21270 26778 ft 458 kts 22°
2026-04-18 03:56 25.42354 119.22364 27103 ft 458 kts 22°
2026-04-18 03:56 25.45178 119.24017 27606 ft 458 kts 22°
2026-04-18 03:56 25.48000 119.25667 28131 ft 457 kts 21°
2026-04-18 03:56 25.50781 119.27300 28626 ft 458 kts 23°
2026-04-18 03:57 25.55931 119.31607 29695 ft 469 kts 41°
2026-04-18 03:57 25.58162 119.34256 30216 ft 469 kts 42°
2026-04-18 03:57 25.60362 119.36877 30667 ft 468 kts 42°
2026-04-18 03:58 25.62588 119.39514 31131 ft 467 kts 42°
2026-04-18 03:58 25.64816 119.42142 31605 ft 465 kts 42°
2026-04-18 03:58 25.67034 119.44757 32089 ft 463 kts 42°
2026-04-18 03:58 25.69205 119.47321 32579 ft 460 kts 42°
2026-04-18 03:59 25.71394 119.49916 32996 ft 461 kts 42°
2026-04-18 03:59 25.73610 119.52541 33112 ft 469 kts 43°
2026-04-18 03:59 25.75906 119.55169 33138 ft 476 kts 37°
2026-04-18 04:00 25.81313 119.59451 33140 ft 482 kts 20°
2026-04-18 04:00 25.87430 119.62894 33135 ft 501 kts 20°
2026-04-18 04:01 25.93642 119.66443 33138 ft 504 kts 21°
2026-04-18 04:01 25.96788 119.68237 33139 ft 506 kts 20°
2026-04-18 04:02 26.03133 119.71876 33333 ft 518 kts 21°
2026-04-18 04:02 26.06279 119.73737 33466 ft 518 kts 22°
2026-04-18 04:02 26.09577 119.75301 33496 ft 509 kts
2026-04-18 04:02 26.13033 119.75680 33472 ft 490 kts 346°
2026-04-18 04:03 26.16276 119.74917 33476 ft 478 kts 334°
2026-04-18 04:03 26.19538 119.73997 33477 ft 491 kts 342°
2026-04-18 04:03 26.22974 119.73508 33483 ft 500 kts 346°
2026-04-18 04:04 26.29985 119.73061 33484 ft 512 kts 350°
2026-04-18 04:04 26.37178 119.72862 33589 ft 516 kts 350°
2026-04-18 04:04 26.40673 119.72772 33950 ft 496 kts 350°
2026-04-18 04:05 26.44040 119.72715 34265 ft 473 kts 350°
2026-04-18 04:05 26.47301 119.72680 34594 ft 468 kts 350°
2026-04-18 04:05 26.50583 119.72707 34895 ft 474 kts 356°
2026-04-18 04:05 26.53874 119.73665 34880 ft 507 kts 21°
2026-04-18 04:06 26.56809 119.76009 34906 ft 528 kts 40°
2026-04-18 04:06 26.61723 119.82202 34995 ft 539 kts 45°
2026-04-18 04:06 26.64306 119.85242 34554 ft 535 kts 37°
2026-04-18 04:07 26.67213 119.87786 34062 ft 525 kts 27°
2026-04-18 04:07 26.70337 119.89881 33817 ft 522 kts 22°
2026-04-18 04:07 26.73536 119.91734 33611 ft 521 kts 19°
2026-04-18 04:07 26.76800 119.93531 33413 ft 521 kts 20°
2026-04-18 04:08 26.79993 119.95483 33439 ft 525 kts 24°
2026-04-18 04:08 26.86206 119.99856 33494 ft 528 kts 27°
2026-04-18 04:09 26.92362 120.04315 33491 ft 532 kts 26°
2026-04-18 04:09 26.98607 120.08741 33493 ft 528 kts 27°
2026-04-18 04:10 27.04837 120.13124 33489 ft 528 kts 26°
2026-04-18 04:10 27.11016 120.17515 33494 ft 529 kts 26°
2026-04-18 04:11 27.17235 120.21943 33496 ft 528 kts 26°
2026-04-18 04:11 27.23469 120.26345 33486 ft 527 kts 26°
2026-04-18 04:12 27.29659 120.30701 33488 ft 528 kts 26°
2026-04-18 04:12 27.35895 120.35104 33343 ft 528 kts 26°
2026-04-18 04:12 27.39012 120.37318 33122 ft 526 kts 26°
2026-04-18 04:13 27.42083 120.39504 33154 ft 528 kts 26°
2026-04-18 04:13 27.45191 120.41721 32975 ft 525 kts 27°
2026-04-18 04:13 27.48261 120.43911 33125 ft 522 kts 26°
2026-04-18 04:14 27.54468 120.48315 33153 ft 528 kts 26°
2026-04-18 04:14 27.60644 120.52723 33152 ft 528 kts 26°
2026-04-18 04:15 27.66858 120.57169 33150 ft 527 kts 26°
2026-04-18 04:15 27.73124 120.61462 33153 ft 521 kts 18°
2026-04-18 04:15 27.76496 120.62852 33149 ft 508 kts
2026-04-18 04:16 27.79944 120.63491 33153 ft 495 kts 355°
2026-04-18 04:16 27.86778 120.64078 33148 ft 496 kts 355°
2026-04-18 04:17 27.93666 120.64716 33146 ft 496 kts 356°
2026-04-18 04:17 28.00565 120.65373 33148 ft 496 kts 356°
2026-04-18 04:18 28.07419 120.66028 33145 ft 496 kts 356°
2026-04-18 04:18 28.14309 120.66704 33143 ft 496 kts 356°
2026-04-18 04:19 28.21178 120.67389 33144 ft 497 kts 356°
2026-04-18 04:19 28.28073 120.68070 33146 ft 497 kts 356°
2026-04-18 04:20 28.34975 120.68745 33153 ft 497 kts 356°
2026-04-18 04:20 28.41367 120.69373 33141 ft 497 kts 356°
2026-04-18 04:21 28.48236 120.70060 33148 ft 498 kts 356°
2026-04-18 04:21 28.55140 120.70753 33141 ft 498 kts 356°
2026-04-18 04:22 28.62062 120.71445 33140 ft 498 kts 356°
2026-04-18 04:22 28.68952 120.72142 33146 ft 497 kts 356°
2026-04-18 04:23 28.75808 120.72870 33135 ft 492 kts 356°
2026-04-18 04:23 28.82627 120.73633 33129 ft 488 kts 356°
2026-04-18 04:24 28.89307 120.74389 33139 ft 476 kts 356°
2026-04-18 04:24 28.95819 120.75068 33139 ft 463 kts 355°
2026-04-18 04:25 29.02245 120.75689 33144 ft 475 kts 355°
2026-04-18 04:25 29.08956 120.76334 33144 ft 495 kts 356°
2026-04-18 04:26 29.15906 120.77059 33143 ft 501 kts 356°
2026-04-18 04:26 29.22129 120.77735 33143 ft 502 kts 356°
2026-04-18 04:27 29.23620 120.77894 33140 ft 502 kts 356°
2026-04-18 04:27 29.30603 120.78624 33147 ft 502 kts 356°
2026-04-18 04:28 29.37529 120.79332 33144 ft 502 kts 356°
2026-04-18 04:28 29.44511 120.80051 33151 ft 502 kts 356°
2026-04-18 04:29 29.51430 120.80766 33145 ft 502 kts 356°
2026-04-18 04:29 29.58399 120.81492 33151 ft 502 kts 356°
2026-04-18 04:30 29.65366 120.82211 33145 ft 502 kts 356°
2026-04-18 04:30 29.72302 120.82882 33147 ft 502 kts 356°
2026-04-18 04:31 29.79269 120.83548 33145 ft 502 kts 356°
2026-04-18 04:31 29.86258 120.84232 33152 ft 502 kts 356°
2026-04-18 04:32 29.93217 120.84916 33151 ft 502 kts 356°
2026-04-18 04:32 30.00169 120.85610 33149 ft 505 kts 358°
2026-04-18 04:33 30.07088 120.87854 33156 ft 523 kts 14°
2026-04-18 04:33 30.12751 120.90344 33154 ft 523 kts 13°
2026-04-18 04:34 30.19562 120.93319 33156 ft 519 kts 13°
2026-04-18 04:34 30.22874 120.94775 33222 ft 495 kts 13°
2026-04-18 04:34 30.26095 120.96189 33053 ft 498 kts 13°
2026-04-18 04:34 30.29153 120.97515 33163 ft 505 kts 13°
2026-04-18 04:35 30.32482 120.98950 33155 ft 515 kts 13°
2026-04-18 04:35 30.39262 121.01893 33158 ft 523 kts 13°
2026-04-18 04:36 30.46076 121.04886 33160 ft 523 kts 13°
2026-04-18 04:36 30.52907 121.07897 33159 ft 523 kts 13°
2026-04-18 04:37 30.59693 121.10882 33159 ft 523 kts 13°
2026-04-18 04:37 30.66507 121.13882 33158 ft 523 kts 13°
2026-04-18 04:38 30.73278 121.16866 33159 ft 522 kts 13°
2026-04-18 04:38 30.80106 121.19877 33152 ft 522 kts 13°
2026-04-18 04:39 30.86862 121.22869 33155 ft 522 kts 13°
2026-04-18 04:39 30.93654 121.25873 33160 ft 522 kts 13°
2026-04-18 04:40 31.00468 121.28889 33159 ft 522 kts 13°
2026-04-18 04:40 31.07228 121.31890 33162 ft 522 kts 13°
2026-04-18 04:41 31.14117 121.33881 33166 ft 498 kts 353°
2026-04-18 04:41 31.17502 121.33824 33167 ft 487 kts 346°
2026-04-18 04:41 31.20928 121.33890 33136 ft 504 kts
2026-04-18 04:41 31.24339 121.35198 33135 ft 526 kts 22°
2026-04-18 04:42 31.27346 121.37758 33139 ft 541 kts 43°
2026-04-18 04:42 31.29596 121.41317 33137 ft 547 kts 63°
2026-04-18 04:42 31.30880 121.45439 33146 ft 547 kts 77°
2026-04-18 04:43 31.32344 121.54177 33143 ft 545 kts 84°
2026-04-18 04:43 31.33402 121.62964 33145 ft 545 kts 84°
2026-04-18 04:44 31.35063 121.71625 33149 ft 549 kts 69°
2026-04-18 04:44 31.38396 121.79581 33151 ft 546 kts 50°
2026-04-18 04:44 31.41089 121.82717 33146 ft 534 kts 29°
2026-04-18 04:45 31.44296 121.84646 33154 ft 515 kts
2026-04-18 04:45 31.47754 121.85297 33157 ft 490 kts 348°
2026-04-18 04:45 31.51027 121.84835 33156 ft 472 kts 336°
2026-04-18 04:46 31.57300 121.82758 33159 ft 466 kts 333°
2026-04-18 04:46 31.63706 121.81058 33164 ft 478 kts 341°
2026-04-18 04:47 31.70380 121.80290 33165 ft 485 kts 346°
2026-04-18 04:47 31.77112 121.79770 33168 ft 484 kts 345°
2026-04-18 04:48 31.83806 121.79070 33163 ft 481 kts 343°
2026-04-18 04:48 31.90450 121.78213 33166 ft 480 kts 343°
2026-04-18 04:49 31.97093 121.77367 33159 ft 480 kts 343°
2026-04-18 04:49 32.03745 121.76582 33167 ft 480 kts 344°
2026-04-18 04:50 32.10398 121.75821 33170 ft 480 kts 343°
2026-04-18 04:50 32.17040 121.75047 33172 ft 479 kts 343°
2026-04-18 04:51 32.23663 121.74263 33173 ft 478 kts 343°
2026-04-18 04:51 32.30282 121.73470 33172 ft 477 kts 343°
2026-04-18 04:52 32.36880 121.72672 33152 ft 477 kts 343°
2026-04-18 04:52 32.43482 121.71932 33174 ft 476 kts 343°
2026-04-18 04:53 32.50063 121.71166 33174 ft 474 kts 343°
2026-04-18 04:53 32.56580 121.70348 33178 ft 473 kts 342°
2026-04-18 04:54 32.63117 121.69540 33179 ft 472 kts 342°
2026-04-18 04:54 32.69651 121.68712 33201 ft 469 kts 340°
2026-04-18 04:55 32.76116 121.67736 33188 ft 470 kts 342°
2026-04-18 04:55 32.82665 121.67078 33179 ft 473 kts 344°
2026-04-18 04:56 32.92483 121.66118 33181 ft 469 kts 342°
2026-04-18 04:56 32.98971 121.65286 33182 ft 468 kts 341°
2026-04-18 04:57 33.05444 121.64455 33186 ft 468 kts 342°
2026-04-18 04:57 33.11924 121.63661 33184 ft 468 kts 342°
2026-04-18 04:58 33.18397 121.62889 33180 ft 467 kts 342°
2026-04-18 04:58 33.24800 121.61924 33178 ft 453 kts 334°
2026-04-18 04:59 33.27753 121.60809 33184 ft 438 kts 325°
2026-04-18 04:59 33.30541 121.59367 33190 ft 435 kts 324°
2026-04-18 04:59 33.36102 121.56488 33186 ft 435 kts 324°
2026-04-18 05:00 33.41655 121.53628 33186 ft 434 kts 324°
2026-04-18 05:00 33.47193 121.50780 33182 ft 433 kts 324°
2026-04-18 05:01 33.52724 121.47935 33185 ft 432 kts 324°
2026-04-18 05:01 33.58241 121.45088 33186 ft 431 kts 324°
2026-04-18 05:02 33.63734 121.42240 33185 ft 430 kts 324°
2026-04-18 05:02 33.69232 121.39421 33174 ft 431 kts 326°
2026-04-18 05:03 33.74839 121.36776 33190 ft 432 kts 327°
2026-04-18 05:03 33.80459 121.34185 33191 ft 433 kts 327°
2026-04-18 05:04 33.86061 121.31560 33190 ft 432 kts 327°
2026-04-18 05:04 33.91652 121.28904 33191 ft 432 kts 327°
2026-04-18 05:05 33.97242 121.26236 33189 ft 432 kts 327°
2026-04-18 05:05 34.02840 121.23573 33189 ft 433 kts 327°
2026-04-18 05:06 34.08434 121.20913 32927 ft 428 kts 327°
2026-04-18 05:06 34.11188 121.19607 32546 ft 424 kts 327°
2026-04-18 05:06 34.13936 121.18296 32437 ft 424 kts 328°
2026-04-18 05:07 34.16684 121.16978 32721 ft 426 kts 327°
2026-04-18 05:07 34.19446 121.15650 33007 ft 428 kts 327°
2026-04-18 05:07 34.22210 121.14325 33158 ft 427 kts 328°
2026-04-18 05:07 34.24977 121.13003 33187 ft 427 kts 328°
2026-04-18 05:08 34.29568 121.10808 32848 ft 425 kts 328°
2026-04-18 05:08 34.32311 121.09497 32389 ft 424 kts 328°
2026-04-18 05:08 34.35055 121.08185 31943 ft 424 kts 328°
2026-04-18 05:09 34.37800 121.06868 31501 ft 424 kts 328°
2026-04-18 05:09 34.40539 121.05553 31052 ft 423 kts 328°
2026-04-18 05:09 34.43275 121.04238 30596 ft 423 kts 328°
2026-04-18 05:09 34.46009 121.02921 30155 ft 423 kts 329°
2026-04-18 05:10 34.48749 121.01595 29636 ft 425 kts 329°
2026-04-18 05:10 34.51509 121.00258 29113 ft 428 kts 329°
2026-04-18 05:10 34.54285 120.98918 28608 ft 431 kts 329°
2026-04-18 05:10 34.57096 120.97566 28105 ft 434 kts 330°
2026-04-18 05:11 34.59879 120.96229 27625 ft 434 kts 330°
2026-04-18 05:11 34.62693 120.94877 27138 ft 432 kts 330°
2026-04-18 05:11 34.65480 120.93534 26662 ft 430 kts 331°
2026-04-18 05:11 34.68253 120.92194 26208 ft 428 kts 331°
2026-04-18 05:12 34.71016 120.90854 25748 ft 426 kts 332°
2026-04-18 05:12 34.73766 120.89519 25287 ft 425 kts 332°
2026-04-18 05:12 34.76505 120.88190 24846 ft 423 kts 332°
2026-04-18 05:12 34.79234 120.86866 24409 ft 421 kts 333°
2026-04-18 05:13 34.81951 120.85547 23974 ft 420 kts 333°
2026-04-18 05:13 34.84659 120.84234 23526 ft 418 kts 334°
2026-04-18 05:13 34.87348 120.82929 23012 ft 415 kts 334°
2026-04-18 05:13 34.90015 120.81631 22509 ft 412 kts 334°
2026-04-18 05:14 34.92669 120.80336 22013 ft 409 kts 334°
2026-04-18 05:14 34.95300 120.79053 21526 ft 406 kts 334°
2026-04-18 05:14 34.97906 120.77784 21048 ft 403 kts 335°
2026-04-18 05:14 35.00506 120.76519 20576 ft 400 kts 335°
2026-04-18 05:15 35.03081 120.75262 20113 ft 397 kts 335°
2026-04-18 05:15 35.05638 120.74013 19655 ft 394 kts 335°
2026-04-18 05:15 35.08173 120.72771 19205 ft 391 kts 335°
2026-04-18 05:15 35.10690 120.71538 18759 ft 388 kts 335°
2026-04-18 05:16 35.13187 120.70313 18311 ft 386 kts 335°
2026-04-18 05:16 35.15674 120.69093 17802 ft 383 kts 335°
2026-04-18 05:16 35.18139 120.67891 17311 ft 380 kts 336°
2026-04-18 05:16 35.20589 120.66705 16820 ft 378 kts 336°
2026-04-18 05:17 35.23023 120.65525 16341 ft 375 kts 336°
2026-04-18 05:17 35.25441 120.64350 15868 ft 372 kts 336°
2026-04-18 05:17 35.27839 120.63186 15399 ft 370 kts 336°
2026-04-18 05:17 35.30225 120.62028 14938 ft 368 kts 336°
2026-04-18 05:18 35.32594 120.60879 14485 ft 365 kts 337°
2026-04-18 05:18 35.34952 120.59735 14038 ft 363 kts 337°
2026-04-18 05:18 35.37339 120.58571 13551 ft 383 kts 337°
2026-04-18 05:18 35.39885 120.57326 13043 ft 398 kts 337°
2026-04-18 05:19 35.42426 120.56076 12561 ft 396 kts 337°
2026-04-18 05:19 35.44983 120.54806 12069 ft 393 kts 337°
2026-04-18 05:19 35.47517 120.53535 11603 ft 391 kts 337°
2026-04-18 05:19 35.50025 120.52266 11134 ft 389 kts 337°
2026-04-18 05:20 35.52491 120.51006 10671 ft 378 kts 337°
2026-04-18 05:20 35.54881 120.49773 10219 ft 367 kts 337°
2026-04-18 05:20 35.57177 120.48577 9756 ft 357 kts 337°
2026-04-18 05:20 35.59446 120.47388 9258 ft 349 kts 337°
2026-04-18 05:21 35.61647 120.46227 8975 ft 335 kts 337°
2026-04-18 05:21 35.63760 120.45109 8669 ft 325 kts 337°
2026-04-18 05:21 35.65802 120.44023 8367 ft 315 kts 337°
2026-04-18 05:21 35.67786 120.42963 8067 ft 307 kts 337°
2026-04-18 05:22 35.69725 120.41922 7771 ft 300 kts 337°
2026-04-18 05:22 35.71590 120.40915 7483 ft 293 kts 337°
2026-04-18 05:22 35.73438 120.39911 7191 ft 288 kts 337°
2026-04-18 05:22 35.75252 120.38921 6900 ft 282 kts 337°
2026-04-18 05:23 35.77030 120.37943 6621 ft 277 kts 337°
2026-04-18 05:23 35.78773 120.36978 6320 ft 273 kts 337°
2026-04-18 05:23 35.80489 120.36029 6022 ft 268 kts 337°
2026-04-18 05:23 35.82167 120.35105 5928 ft 263 kts 337°
2026-04-18 05:24 35.83843 120.34184 5937 ft 263 kts 337°
2026-04-18 05:24 35.85517 120.33262 5945 ft 264 kts 337°
2026-04-18 05:24 35.87195 120.32337 5936 ft 264 kts 337°
2026-04-18 05:24 35.88874 120.31412 5935 ft 264 kts 337°
2026-04-18 05:25 35.90558 120.30482 5801 ft 263 kts 337°
2026-04-18 05:25 35.92217 120.29569 5703 ft 264 kts 337°
2026-04-18 05:25 35.93895 120.28650 5607 ft 263 kts 337°
2026-04-18 05:25 35.95572 120.27735 5486 ft 264 kts 337°
2026-04-18 05:26 35.97258 120.26829 5388 ft 264 kts 339°
2026-04-18 05:26 35.99019 120.26226 5295 ft 263 kts 350°
2026-04-18 05:26 36.00838 120.25979 5194 ft 262 kts 359°
2026-04-18 05:26 36.02651 120.26227 5086 ft 262 kts
2026-04-18 05:27 36.04457 120.26569 4972 ft 262 kts
2026-04-18 05:27 36.06256 120.26910 4921 ft 262 kts
2026-04-18 05:27 36.08067 120.27253 4925 ft 262 kts
2026-04-18 05:27 36.09850 120.27579 4924 ft 261 kts
2026-04-18 05:28 36.11666 120.27614 4921 ft 262 kts 356°
2026-04-18 05:28 36.13480 120.27418 4918 ft 261 kts 353°
2026-04-18 05:28 36.15296 120.27144 4921 ft 261 kts 353°
2026-04-18 05:28 36.17105 120.26863 4916 ft 261 kts 353°
2026-04-18 05:29 36.18881 120.26602 4912 ft 261 kts 354°
2026-04-18 05:29 36.20693 120.26354 4914 ft 262 kts 354°
2026-04-18 05:29 36.22507 120.26119 4911 ft 261 kts 355°
2026-04-18 05:29 36.24280 120.25900 4908 ft 250 kts 354°
2026-04-18 05:30 36.25983 120.25697 4914 ft 252 kts 355°
2026-04-18 05:30 36.27783 120.25484 4904 ft 263 kts 354°
2026-04-18 05:30 36.29590 120.25119 4719 ft 263 kts 345°
2026-04-18 05:30 36.31343 120.24456 4507 ft 262 kts 343°
2026-04-18 05:31 36.33095 120.23787 4299 ft 263 kts 343°
2026-04-18 05:31 36.34842 120.23122 4103 ft 263 kts 343°
2026-04-18 05:31 36.36573 120.22468 3901 ft 262 kts 343°
2026-04-18 05:31 36.38328 120.21807 3694 ft 262 kts 343°
2026-04-18 05:32 36.40079 120.21149 3498 ft 262 kts 343°
2026-04-18 05:32 36.41821 120.20489 3295 ft 261 kts 343°
2026-04-18 05:32 36.43537 120.19840 3091 ft 262 kts 343°
2026-04-18 05:32 36.45284 120.19180 2886 ft 263 kts 343°
2026-04-18 05:33 36.47035 120.18517 2717 ft 263 kts 342°
2026-04-18 05:33 36.48782 120.17851 2559 ft 264 kts 343°
2026-04-18 05:33 36.50554 120.17177 2411 ft 265 kts 343°
2026-04-18 05:33 36.52322 120.16503 2252 ft 266 kts 342°
2026-04-18 05:34 36.54083 120.15836 2109 ft 263 kts 342°
2026-04-18 05:34 36.55852 120.15159 1996 ft 263 kts 342°
2026-04-18 05:34 36.57546 120.14510 2009 ft 251 kts 342°
2026-04-18 05:34 36.59194 120.13882 2005 ft 238 kts 341°
2026-04-18 05:35 36.60726 120.13283 2002 ft 227 kts 338°
2026-04-18 05:35 36.61911 120.12181 2024 ft 205 kts 304°
2026-04-18 05:35 36.62344 120.10585 1993 ft 189 kts 269°
2026-04-18 05:35 36.62081 120.09066 2000 ft 179 kts 246°
2026-04-18 05:36 36.61665 120.07622 1991 ft 173 kts 250°
2026-04-18 05:36 36.61287 120.06245 1984 ft 163 kts 249°
2026-04-18 05:36 36.60935 120.04943 2002 ft 154 kts 249°
2026-04-18 05:36 36.60603 120.03713 1978 ft 144 kts 250°
2026-04-18 05:37 36.60159 120.02588 2006 ft 145 kts 229°
2026-04-18 05:37 36.59392 120.01811 2017 ft 146 kts 203°
2026-04-18 05:37 36.58433 120.01506 2000 ft 142 kts 179°
2026-04-18 05:37 36.57452 120.01729 1998 ft 144 kts 162°
2026-04-18 05:38 36.56508 120.02098 2015 ft 144 kts 166°
2026-04-18 05:38 36.55549 120.02465 1982 ft 141 kts 166°
2026-04-18 05:38 36.54603 120.02836 2016 ft 146 kts 164°
2026-04-18 05:38 36.53638 120.03214 2000 ft 143 kts 162°
2026-04-18 05:39 36.52692 120.03586 1991 ft 141 kts 163°
2026-04-18 05:39 36.51747 120.03957 1987 ft 142 kts 165°
2026-04-18 05:39 36.50801 120.04329 1996 ft 143 kts 163°
2026-04-18 05:39 36.49858 120.04703 2004 ft 141 kts 161°
2026-04-18 05:40 36.48926 120.05060 2242 ft 136 kts 163°
2026-04-18 05:40 36.47982 120.05414 2303 ft 151 kts 162°
2026-04-18 05:40 36.46987 120.05822 1982 ft 149 kts 163°
2026-04-18 05:40 36.45979 120.06227 1742 ft 152 kts 164°
2026-04-18 05:41 36.45038 120.06608 1528 ft 138 kts 162°
2026-04-18 05:41 36.44138 120.06960 1328 ft 133 kts 162°
2026-04-18 05:41 36.43253 120.07307 1142 ft 130 kts 162°
2026-04-18 05:41 36.42393 120.07644 960 ft 128 kts 162°
2026-04-18 05:42 36.41548 120.07977 791 ft 127 kts 162°
2026-04-18 05:42 36.40702 120.08310 625 ft 127 kts 161°
2026-04-18 05:42 36.39857 120.08642 448 ft 127 kts 160°
2026-04-18 05:42 36.39007 120.08955 258 ft 127 kts 162°
2026-04-18 05:43 36.38173 120.09293 84 ft 125 kts 161°
2026-04-18 05:43 36.37342 120.09619 43 ft 123 kts 161°
2026-04-18 05:43 36.36715 120.09891 34 ft 55 kts 159°
2026-04-18 05:43 36.36603 120.09944 35 ft 4 kts 161°
2026-04-18 05:44 36.36565 120.09926 35 ft 7 kts 227°
2026-04-18 05:44 36.36523 120.09869 35 ft 10 kts 214°
2026-04-18 05:44 36.36453 120.09847 36 ft 11 kts 189°
2026-04-18 05:44 36.36370 120.09829 36 ft 13 kts 191°
2026-04-18 05:45 36.36299 120.09766 36 ft 14 kts 252°
2026-04-18 05:45 36.36267 120.09642 37 ft 16 kts 250°
2026-04-18 05:45 36.36240 120.09538 36 ft 9 kts 253°
2026-04-18 05:45 36.36233 120.09506 37 ft 1 kts 250°
2026-04-18 05:46 36.36224 120.09487 35 ft 4 kts 231°
2026-04-18 05:46 36.36206 120.09474 37 ft 5 kts 207°
2026-04-18 05:46 36.36170 120.09459 37 ft 1 kts 194°
2026-04-18 05:46 36.36163 120.09457 37 ft 0 kts 192°
2026-04-18 05:47 36.36154 120.09455 37 ft 3 kts 192°
2026-04-18 05:47 36.36152 120.09454 37 ft 0 kts 192°